This demonstration page uses our WeatherBlox Daily Observations layout. Learn more.

Left ArrowRight Arrow

39.08367, -84.50855

Hourly Observations for July 6, 2017

Temp ( °F °C ) Dew Point ( °F °C ) Humidity (%) Winds ( mph kmh ) Pressure ( in mb ) Visibility ( mi km ) Precip ( " mm )
12:53 am 00:53 Cloudy 72 22.2 71 21.7 97 97 N N/A 30.06 1018 7 11.26538 N/A
1:53 am 01:53 Mostly Cloudy with Mist and Fog 71 21.7 70 21.1 96 96 E 3 6 30.04 1017 5 8.0467 N/A
2:53 am 02:53 Mostly Cloudy with Light Rain 71 21.7 71 21.7 100 100 N N/A 30.03 1017 4 6.43736 N/A
3:53 am 03:53 Mostly Clear with Mist and Fog 72 22.2 71 21.7 97 97 N N/A 30.02 1017 5 8.0467 N/A
4:36 am 04:36 Clear with Mist and Fog 69 20.6 69 20.6 100 100 N N/A 30 1016 2.5 4.02335 N/A
4:46 am 04:46 Clear with Light Rain 69 20.6 69 20.6 100 100 N N/A 30 1016 3 4.82802 N/A
4:53 am 04:53 Clear with Light Rain 70 21.1 70 21.1 100 100 N N/A 30.02 1017 3 4.82802 N/A
5:53 am 05:53 Clear with Mist and Fog 71 21.7 71 21.7 100 100 N N/A 30.01 1016 4 6.43736 N/A
6:09 am 06:09 Partly Cloudy with Mist and Fog 71 21.7 71 21.7 100 100 N N/A 30 1016 3 4.82802 N/A
6:21 am 06:21 Mostly Cloudy with Mist and Fog 70 21.1 70 21.1 100 100 N N/A 30 1016 3 4.82802 N/A
6:35 am 06:35 Cloudy with Light Rain 71 21.7 71 21.7 100 100 N N/A 30 1016 4 6.43736 N/A
6:42 am 06:42 Cloudy with Light Rain 72 22.2 71 21.7 97 97 N N/A 30 1016 5 8.0467 N/A
6:53 am 06:53 Cloudy with Light Rain 72 22.2 72 22.2 100 100 S 5 7 30.02 1017 5 8.0467 N/A
7:15 am 07:15 Mostly Cloudy with Light Rain 73 22.8 72 22.2 96 96 N N/A 30 1016 8 12.87472 N/A
7:53 am 07:53 Mostly Cloudy with Light Rain 73 22.8 72 22.2 96 96 S 8 13 30.04 1017 4 6.43736 0.02 0.508
8:53 am 08:53 Cloudy with Rain 72 22.2 71 21.7 97 97 N N/A 30.02 1017 4 6.43736 0.12 3.048
9:53 am 09:53 Cloudy with Light Rain 74 23.3 72 22.2 94 94 N N/A 30.02 1017 5 8.0467 0.04 1.016
10:09 am 10:09 Mostly Cloudy with Light Rain 74 23.3 72 22.2 94 94 N N/A 30 1016 10 16.0934 N/A
10:53 am 10:53 Mostly Cloudy 77 25 72 22.2 85 85 N N/A 30 1016 10 16.0934 N/A
11:53 am 11:53 Mostly Cloudy 80 26.7 73 22.8 79 79 NW 5 7 30 1016 10 16.0934 N/A
12:38 pm 12:38 Mostly Cloudy 78 25.6 72 22.2 82 82 WNW 9 15 30 1016 10 16.0934 N/A
12:53 pm 12:53 Mostly Cloudy 81 27.2 73 22.8 77 77 VRB 5 7 29.99 1016 10 16.0934 N/A
1:01 pm 13:01 Mostly Cloudy 80 26.7 72 22.2 76 76 VRB 3 6 29.97 1015 10 16.0934 N/A
1:53 pm 13:53 Cloudy 76 24.4 69 20.6 79 79 N 16 26 29.99 1016 10 16.0934 N/A
2:20 pm 14:20 Cloudy with Light Thunderstorms 74 23.3 69 20.6 85 85 N 7 11 29.97 1015 10 16.0934 0.01 0.254
2:41 pm 14:41 Cloudy with Heavy Rain 73 22.8 71 21.7 94 94 ESE 7 11 29.97 1015 3 4.82802 0.06 1.524
2:48 pm 14:48 Cloudy with Heavy Rain 72 22 72 22 100 100 E 7 11 29.97 1015 2 3.21868 0.1 2.54
2:53 pm 14:53 Cloudy with Heavy Rain 72 22.2 71 21.7 97 97 ENE 5 7 29.99 1016 2 3.21868 0.12 3.048
3:04 pm 15:04 Cloudy with Light Rain 73 22.8 71 21.7 94 94 ENE 3 6 29.97 1015 5 8.0467 0.01 0.254
3:53 pm 15:53 Cloudy with Light Rain 73 22.8 73 22.8 100 100 S 5 7 29.97 1015 10 16.0934 0.04 1.016
4:53 pm 16:53 Mostly Cloudy with Light Rain 74 23.3 71 21.7 91 91 N N/A 29.96 1014 9 14.48406 0.01 0.254
5:53 pm 17:53 Cloudy with Light Rain 74 23.3 72 22.2 94 94 NE 3 6 29.94 1014 10 16.0934 N/A
6:53 pm 18:53 Cloudy 74 23.3 71 21.7 91 91 N N/A 29.94 1014 10 16.0934 N/A
7:53 pm 19:53 Cloudy 74 23.3 72 22.2 94 94 SSW 3 6 29.96 1015 10 16.0934 N/A
8:53 pm 20:53 Mostly Sunny 73 22.8 72 22.2 96 96 N N/A 29.95 1014 10 16.0934 N/A
9:53 pm 21:53 Clear 70 21.1 70 21.1 100 100 SSW 5 7 29.96 1015 10 16.0934 N/A
10:53 pm 22:53 Clear with Mist and Fog 68 20 68 20 100 100 SSE 6 9 29.96 1014 2.5 4.02335 N/A
11:03 pm 23:03 Clear 68 20 68 20 100 100 S 3 6 29.94 1014 7 11.26538 N/A
11:36 pm 23:36 Clear with Mist and Fog 69 20.6 69 20.6 100 100 SSW 3 6 29.94 1014 1.75 2.816345 N/A
11:44 pm 23:44 Mostly Cloudy with Fog 68 20 68 20 100 100 N N/A 29.94 1014 0.5 0.80467 N/A
11:53 pm 23:53 Mostly Cloudy with Mist and Fog 69 20.6 69 20.6 100 100 N N/A 29.97 1015 1 1.60934 N/A
11:55 pm 23:55 Mostly Clear with Mist and Fog 68 20 68 20 100 100 N N/A 29.94 1014 3 4.82802 N/A
11:57 pm 23:57 Mostly Cloudy with Mist and Fog 67 19.4 67 19.4 100 100 SSE 3 6 29.94 1014 1 1.60934 N/A
11:59 pm 23:59 Mostly Cloudy with Mist and Fog 67 19.4 67 19.4 100 100 SSE 3 6 29.94 1014 0.75 1.207005 N/A

Powered by AerisWeather